Starlink 4037

operational
NORAD ID: 52663 Int'l Des: 2022-053 Owner: SPXS Country: US Constellation: starlink
LEOCIRCULAR

关于 Starlink 4037

正在加载描述...

实时位置

正在加载3D地球...

即将过境

高度历史

Altitude vs Time

uPlot chart will show altitude changes over time

两行轨道根数

1 52663U 22053H 25352.19754368 .00000971 00000-0 79091-4 0 9991
2 52663 53.2161 159.9550 0001572 93.6471 266.4701 15.08841454198746
Epoch: Dec 18, 2025 • Age: 9 hours

当前状态

高度 539.7 km
速度 7.59 km/s
星下点 8.05°N, 43.28°E
发射日期 May 18, 2022
运行时间 3.5 years
类型 internet

技术详情

分类 Payload
质量 297.00 kg
干质量 275.00 kg
总质量 297.00 kg
长度 0.20 m
直径 2.80 m
跨度 9.00 m
形状 Box + pan
制造商 SPXS
平台类型 Starlink
阶段状态 In Orbit
所有者/国家 SPXS/US

大型星座

Loading constellations...